Date String (YYYY-MM-DD hh:mm:ss) UTC,Instrument flags,Ambient pressure (hPa),Sample flow (lpm),Bypass flow (lpm),Sample temperature (°C),Ambient temperature (°C),ASC tube jacket temperature (°C),LED temperature (°C),Box temperature (°C),Sample RH (%),Span deviation,Mass concentration (μg/m³),Mass concentration (μg/m³),Mass concentration (μg/m³)
DateTimeUTC,F1_M11,P_M11,Q1_M11,Q2_M11,T1_M11,T2_M11,T3_M11,T4_M11,T5_M11,U1_M11,ZSPAN_M11,X2_M11,X0_M11,X1_M11
2021-11-01 15:00:00,,0831.9,5.01,0.00,23.5,22.7,00.0,32.6,25.3,18.6,0000.0,0003.25,0004.37,0003.02
2021-11-01 15:01:00,,0831.9,4.99,0.00,23.5,22.7,00.0,32.6,25.3,18.6,0000.0,0003.26,0004.58,0003.01
2021-11-01 15:02:00,,0831.9,5.00,0.00,23.5,22.7,00.0,32.6,25.3,18.6,0000.0,0003.26,0004.75,0002.97
2021-11-01 15:03:00,,0831.9,4.99,0.00,23.5,22.7,00.0,32.6,25.3,18.6,0000.0,0003.24,0004.74,0002.92
2021-11-01 15:04:00,,0831.9,5.01,0.00,23.5,22.7,00.0,32.6,25.3,18.5,0000.0,0003.20,0004.61,0002.88
2021-11-01 15:05:00,,0832.0,5.00,0.00,23.5,22.7,00.0,32.6,25.3,18.5,0000.0,0003.16,0004.44,0002.83
2021-11-01 15:06:00,,0832.0,5.01,0.00,23.5,22.7,00.0,32.6,25.3,18.5,0000.0,0003.10,0004.30,0002.76
2021-11-01 15:07:00,,0832.0,4.99,0.00,23.5,22.7,00.0,32.6,25.3,18.5,0000.0,0003.04,0004.30,0002.69
2021-11-01 15:08:00,,0831.9,5.01,0.00,23.5,22.7,00.0,32.6,25.3,18.5,0000.0,0002.97,0004.24,0002.61
2021-11-01 15:09:00,,0832.0,4.99,0.00,23.5,22.7,00.0,32.5,25.3,18.5,0000.0,0002.94,0004.40,0002.55
2021-11-01 15:10:00,,0831.9,5.00,0.00,23.5,22.7,00.0,32.5,25.3,18.4,0000.0,0002.86,0004.66,0002.47
2021-11-01 15:11:00,,0831.8,5.00,0.00,23.5,22.7,00.0,32.5,25.3,18.3,0000.0,0002.76,0004.07,0002.39
2021-11-01 15:12:00,,0831.9,5.00,0.00,23.5,22.6,00.0,32.5,25.3,18.3,0000.0,0002.66,0003.80,0002.32
2021-11-01 15:13:00,,0831.9,5.00,0.00,23.5,22.6,00.0,32.5,25.3,18.2,0000.0,0002.53,0003.48,0002.24
2021-11-01 15:14:00,,0831.9,5.00,0.00,23.5,22.6,00.0,32.5,25.3,18.2,0000.0,0002.42,0003.33,0002.17
2021-11-01 15:15:00,,0832.0,5.00,0.00,23.5,22.7,00.0,32.5,25.3,18.3,0000.0,0002.32,0003.28,0002.08
2021-11-01 15:16:00,,0832.0,5.00,0.00,23.5,22.6,00.0,32.5,25.3,18.3,0000.0,0002.26,0003.19,0002.03
2021-11-01 15:17:00,,0831.9,4.99,0.00,23.5,22.6,00.0,32.5,25.2,18.3,0000.0,0002.25,0003.23,0002.00
2021-11-01 15:18:00,,0831.8,5.00,0.00,23.5,22.6,00.0,32.5,25.2,18.3,0000.0,0002.21,0003.12,0001.99
2021-11-01 15:19:00,,0832.0,5.00,0.00,23.4,22.6,00.0,32.5,25.2,18.3,0000.0,0002.18,0003.51,0001.98
2021-11-01 15:20:00,,0832.0,4.99,0.00,23.4,22.6,00.0,32.5,25.2,18.3,0000.0,0002.14,0003.72,0001.96
2021-11-01 15:21:00,,0832.0,5.00,0.00,23.4,22.6,00.0,32.5,25.2,18.2,0000.0,0002.16,0003.44,0001.97
2021-11-01 15:22:00,,0832.0,5.00,0.00,23.4,22.5,00.0,32.5,25.2,18.2,0000.0,0002.16,0003.41,0001.97
2021-11-01 15:23:00,,0832.1,4.99,0.00,23.4,22.5,00.0,32.5,25.2,18.2,0000.0,0002.18,0003.41,0001.99
2021-11-01 15:24:00,,0832.1,5.01,0.00,23.4,22.6,00.0,32.5,25.2,18.2,0000.0,0002.23,0003.60,0002.02
2021-11-01 15:25:00,,0832.1,4.99,0.00,23.4,22.5,00.0,32.5,25.2,18.2,0000.0,0002.27,0003.61,0002.05
2021-11-01 15:26:00,,0832.1,5.00,0.00,23.4,22.5,00.0,32.5,25.1,18.2,0000.0,0002.29,0003.52,0002.06
2021-11-01 15:27:00,,0832.0,5.01,0.00,23.4,22.5,00.0,32.5,25.1,18.2,0000.0,0002.31,0003.67,0002.08
2021-11-01 15:28:00,,0832.0,4.99,0.00,23.4,22.5,00.0,32.5,25.1,18.2,0000.0,0002.33,0003.67,0002.10
2021-11-01 15:29:00,,0832.0,5.02,0.00,23.4,22.5,00.0,32.4,25.1,18.2,0000.0,0002.34,0003.67,0002.12
2021-11-01 15:30:00,,0832.1,4.99,0.00,23.3,22.5,00.0,32.4,25.1,18.2,0000.0,0002.37,0003.41,0002.14
2021-11-01 15:31:00,,0832.1,5.02,0.00,23.3,22.5,00.0,32.4,25.1,18.2,0000.0,0002.37,0002.80,0002.15
2021-11-01 15:32:00,,0832.1,5.00,0.00,23.3,22.5,00.0,32.4,25.1,18.2,0000.0,0002.36,0002.91,0002.14
2021-11-01 15:33:00,,0832.1,4.99,0.00,23.3,22.5,00.0,32.4,25.1,18.1,0000.0,0002.33,0002.91,0002.12
2021-11-01 15:34:00,,0832.1,5.00,0.00,23.3,22.5,00.0,32.4,25.1,18.1,0000.0,0002.30,0002.86,0002.09
2021-11-01 15:35:00,,0832.2,4.99,0.00,23.3,22.5,00.0,32.4,25.1,18.2,0000.0,0002.26,0002.73,0002.05
2021-11-01 15:36:00,,0832.2,5.01,0.00,23.3,22.5,00.0,32.4,25.1,18.2,0000.0,0002.18,0003.00,0002.00
2021-11-01 15:37:00,,0832.1,5.01,0.00,23.3,22.4,00.0,32.4,25.1,18.2,0000.0,0002.16,0002.96,0001.99
2021-11-01 15:38:00,,0832.2,4.99,0.00,23.3,22.5,00.0,32.4,25.1,18.1,0000.0,0002.15,0002.85,0001.98
2021-11-01 15:39:00,,0832.2,5.01,0.00,23.3,22.5,00.0,32.4,25.1,18.0,0000.0,0002.12,0002.76,0001.96
2021-11-01 15:40:00,,0832.2,5.00,0.00,23.3,22.5,00.0,32.4,25.1,18.0,0000.0,0002.11,0002.78,0001.93
2021-11-01 15:41:00,,0832.2,5.00,0.00,23.3,22.5,00.0,32.4,25.1,17.8,0000.0,0002.10,0002.80,0001.90
2021-11-01 15:42:00,,0832.3,5.00,0.00,23.3,22.5,00.0,32.4,25.1,17.8,0000.0,0002.10,0002.81,0001.89
2021-11-01 15:43:00,,0832.3,5.00,0.00,23.3,22.5,00.0,32.4,25.1,17.8,0000.0,0002.07,0002.61,0001.89
2021-11-01 15:44:00,,0832.2,4.99,0.00,23.3,22.5,00.0,32.4,25.1,17.8,0000.0,0002.10,0002.63,0001.90
2021-11-01 15:45:00,,0832.3,5.02,0.00,23.3,22.5,00.0,32.4,25.1,17.8,0000.0,0002.12,0002.64,0001.93
2021-11-01 15:46:00,,0832.2,5.01,0.00,23.3,22.4,00.0,32.4,25.1,17.8,0000.0,0002.10,0002.58,0001.94
2021-11-01 15:47:00,,0832.3,4.98,0.00,23.3,22.4,00.0,32.4,25.1,17.8,0000.0,0002.12,0002.22,0001.95
2021-11-01 15:48:00,,0832.3,5.01,0.00,23.3,22.4,00.0,32.3,25.1,17.8,0000.0,0002.14,0002.27,0001.96
2021-11-01 15:49:00,,0832.3,5.01,0.00,23.3,22.4,00.0,32.3,25.0,17.9,0000.0,0002.15,0002.37,0001.96
2021-11-01 15:50:00,,0832.3,4.99,0.00,23.2,22.4,00.0,32.3,25.0,18.0,0000.0,0002.16,0002.45,0001.94
2021-11-01 15:51:00,,0832.4,5.00,0.00,23.2,22.4,00.0,32.3,25.0,18.0,0000.0,0002.15,0002.47,0001.93
2021-11-01 15:52:00,,0832.5,5.01,0.00,23.2,22.4,00.0,32.3,25.0,18.0,0000.0,0002.13,0002.41,0001.94
2021-11-01 15:53:00,,0832.5,4.99,0.00,23.2,22.4,00.0,32.3,25.0,18.0,0000.0,0002.10,0002.36,0001.93
2021-11-01 15:54:00,,0832.5,5.01,0.00,23.2,22.4,00.0,32.3,25.0,17.9,0000.0,0002.09,0002.35,0001.91
2021-11-01 15:55:00,,0832.6,5.00,0.00,23.2,22.4,00.0,32.3,25.0,17.9,0000.0,0002.03,0002.29,0001.87
2021-11-01 15:56:00,,0832.6,5.00,0.00,23.2,22.4,00.0,32.3,25.0,17.8,0000.0,0001.98,0002.24,0001.82
2021-11-01 15:57:00,,0832.5,5.00,0.00,23.2,22.4,00.0,32.3,25.0,17.8,0000.0,0001.96,0002.23,0001.79
2021-11-01 15:58:00,,0832.6,5.01,0.00,23.2,22.4,00.0,32.3,25.0,17.8,0000.0,0001.97,0002.79,0001.77
2021-11-01 15:59:00,,0832.6,4.99,0.00,23.2,22.4,00.0,32.3,25.0,17.8,0000.0,0001.93,0003.09,0001.73
